Regional Weather Roundup
Issued by NWS Sioux Falls, SD

Home | Current Version | Previous Version | Graphics & Text | Print | Product List | Glossary Off
Versions: 1 2 3 4 5 6 7 8 9 10 11 12 13 14 15 16 17 18 19 20 21 22 23 24 25 26 27 28 29 30 31 32 33 34 35 36 37 38 39 40 41 42 43 44 45 46 47 48 49 50

000
ASUS43 KFSD 161110
RWRFSD

WEATHER ROUNDUP FOR SE SOUTH DAKOTA/SW MINNESOTA/NW IOWA
NATIONAL WEATHER SERVICE SIOUX FALLS SD
600 AM CDT TUE SEP 16 2014

NOTE: "FAIR" INDICATES FEW OR NO CLOUDS BELOW 12,000 FEET WITH NO
SIGNIFICANT WEATHER AND OR OBSTRUCTIONS TO VISIBILITY.


SDZ038>040-050-052>070-161200-
SOUTHEAST SOUTH DAKOTA

CITY           SKY/WX    TMP DP  RH WIND       PRES   REMARKS
CHAMBERLAIN    CLEAR     42  40  93 SE6       30.11F
HURON          CLEAR     40  36  86 SE5       30.15F
MADISON        FAIR      39  39 100 S6        30.19F
MITCHELL       CLEAR     41  39  93 SE6       30.17F
SIOUX FALLS    CLEAR     39  38  96 CALM      30.20F
WINNER         FAIR      52  41  66 S21       30.08F
YANKTON        CLEAR     41  37  87 CALM      30.20F
$$

MNZ071-072-080-081-089-090-097-098-161200-
SOUTHWEST MINNESOTA

CITY           SKY/WX    TMP DP  RH WIND       PRES   REMARKS
FAIRMONT       CLEAR     43  36  75 SW5       30.21F
JACKSON        CLEAR     41  37  87 S7        30.21F
LUVERNE        CLEAR     36  34  93 CALM      30.22S
MARSHALL       CLEAR     43  36  75 SW8       30.17F
MONTEVIDEO     CLEAR     39  34  81 SW6       30.18F
PIPESTONE      CLEAR     39  37  93 SW3       30.20S
REDWOOD FALLS  CLEAR     42  38  85 SW8       30.19S
TRACY          CLEAR     45  40  85 SW8       30.19F
WINDOM         FOG       37  36  93 CALM      30.20F VSB 3/4
WORTHINGTON    CLEAR     39  37  93 SW5       30.22S
$$

IAZ001>003-012>014-020>022-031-032-NEZ013-014-SDZ071-161200-
NORTHWEST IOWA

CITY           SKY/WX    TMP DP  RH WIND       PRES   REMARKS
CHEROKEE       CLEAR     35  35 100 CALM      30.23S
DENISON        CLEAR     37  37 100 CALM      30.23F
ESTHERVILLE    CLEAR     38  36  92 SW5       30.22S
LE MARS        CLEAR     36  36 100 CALM      30.23S
ORANGE CITY    CLEAR     43  37  81 CALM      30.21F
SHELDON        CLEAR     36  36 100 CALM      30.21S
SIOUX CITY     PTCLDY    39  38  96 E3        30.23S FOG
SPENCER        CLEAR     36  34  92 CALM      30.22F
STORM LAKE     CLEAR     41  41 100 S7        30.23S
$$

ABBREVIATIONS USED IN REMARKS
   TC - TEMPERATURE IN CELSIUS
  WCI - WIND CHILL INDEX
   HX - HEAT INDEX
  VSB - VISIBILITY




USA.gov is the U.S. government's official web portal to all federal, state and local government web resources and services.